| time (UTC) | temp F | wind direction | speed MPH | gust MPH | rain 1hr in | rain 24hr in | rain mn in | humidity % | barometer mb |
| 20260902090014 | 84 | 8 | 10.0 | 18.0 | 0.00 | 0.00 | 0.00 | 71 | 1018.7 |
| 20260902084512 | 84 | 55 | 12.0 | 16.0 | 0.00 | 0.00 | 0.00 | 69 | 1018.6 |
| 20260902083011 | 84 | 358 | 10.0 | 16.0 | 0.00 | 0.00 | 0.00 | 69 | 1018.5 |
| 20260902081515 | 84 | 30 | 10.0 | 16.0 | 0.00 | 0.00 | 0.00 | 67 | 1018.5 |
| 20260902080008 | 83 | 11 | 10.0 | 16.0 | 0.00 | 0.00 | 0.00 | 68 | 1018.4 |
| 20260902074507 | 84 | 70 | 10.0 | 16.0 | 0.00 | 0.00 | 0.00 | 64 | 1018.4 |
| 20260902073105 | 85 | 21 | 4.0 | 9.0 | 0.00 | 0.00 | 0.00 | 60 | 1018.2 |
| 20260902071508 | 85 | 42 | 4.0 | 10.0 | 0.00 | 0.00 | 0.00 | 61 | 1018.1 |
| 20260902070004 | 85 | 350 | 3.0 | 9.0 | 0.00 | 0.00 | 0.00 | 62 | 1018.1 |
| 20260902064606 | 84 | 10 | 3.0 | 6.0 | 0.00 | 0.00 | 0.00 | 63 | 1018.1 |
| 20260902063057 | 83 | 351 | 0.0 | 3.0 | 0.00 | 0.00 | 0.00 | 61 | 1018.2 |
| 20260902060149 | 80 | 267 | 1.0 | 4.0 | 0.00 | 0.00 | 0.00 | 64 | 1017.9 |
| 20260902054557 | 79 | 280 | 1.0 | 5.0 | 0.00 | 0.00 | 0.00 | 64 | 1017.9 |
| 20260902053047 | 78 | 274 | 2.0 | 5.0 | 0.00 | 0.00 | 0.00 | 65 | 1018.0 |
| 20260902051553 | 78 | 289 | 0.0 | 3.0 | 0.00 | 0.00 | 0.00 | 65 | 1018.0 |
| 20260902050050 | 78 | 282 | 1.0 | 4.0 | 0.00 | 0.00 | 0.00 | 66 | 1017.9 |
| 20260902044545 | 77 | 276 | 1.0 | 5.0 | 0.00 | 0.00 | 0.00 | 66 | 1017.9 |
| 20260902043044 | 76 | 285 | 1.0 | 5.0 | 0.00 | 0.00 | 0.00 | 64 | 1017.8 |
| 20260902041555 | 75 | 309 | 1.0 | 4.0 | 0.00 | 0.00 | 0.00 | 63 | 1017.7 |
| 20260902040043 | 75 | 276 | 1.0 | 5.0 | 0.00 | 0.00 | 0.00 | 62 | 1017.6 |
| 20260902034545 | 75 | 274 | 0.0 | 3.0 | 0.00 | 0.00 | 0.00 | 62 | 1017.6 |
| 20260902033045 | 75 | 208 | 1.0 | 5.0 | 0.00 | 0.00 | 0.00 | 62 | 1017.6 |
| 20260902031540 | 75 | 217 | 2.0 | 5.0 | 0.00 | 0.00 | 0.00 | 61 | 1017.6 |
| 20260902030038 | 76 | 277 | 2.0 | 5.0 | 0.00 | 0.00 | 0.00 | 60 | 1017.5 |
| 20260902024538 | 76 | 265 | 2.0 | 5.0 | 0.00 | 0.00 | 0.00 | 60 | 1017.5 |
| 20260902023036 | 76 | 201 | 0.0 | 5.0 | 0.00 | 0.00 | 0.00 | 59 | 1017.5 |
| 20260902021544 | 76 | 259 | 2.0 | 6.0 | 0.00 | 0.00 | 0.00 | 59 | 1017.6 |
| 20260902020035 | 76 | 224 | 2.0 | 5.0 | 0.00 | 0.00 | 0.00 | 59 | 1017.6 |
| 20260902014538 | 76 | 256 | 2.0 | 6.0 | 0.00 | 0.00 | 0.00 | 59 | 1017.7 |
| 20260902013031 | 77 | 243 | 1.0 | 4.0 | 0.00 | 0.00 | 0.00 | 58 | 1017.8 |
| 20260902011536 | 77 | 274 | 0.0 | 4.0 | 0.00 | 0.00 | 0.00 | 59 | 1017.8 |
| 20260902010042 | 77 | 255 | 0.0 | 2.0 | 0.00 | 0.00 | 0.00 | 59 | 1017.9 |
| 20260902004533 | 78 | 217 | 0.0 | 4.0 | 0.00 | 0.00 | 0.00 | 59 | 1017.9 |
| 20260902003025 | 78 | 276 | 0.0 | 4.0 | 0.00 | 0.00 | 0.00 | 59 | 1017.8 |
| 20260902001525 | 78 | 277 | 1.0 | 3.0 | 0.00 | 0.00 | 0.00 | 59 | 1018.0 |
| 20260902000043 | 78 | 271 | 2.0 | 0.0 | 0.00 | 0.00 | 0.00 | 59 | 1017.9 |
| 20260901234549 | 78 | 269 | 0.0 | 4.0 | 0.00 | 0.00 | 0.00 | 60 | 1018.0 |
| 20260901233020 | 78 | 271 | 1.0 | 5.0 | 0.00 | 0.00 | 0.00 | 60 | 1018.0 |
| 20260901231526 | 78 | 291 | 1.0 | 5.0 | 0.00 | 0.00 | 0.00 | 60 | 1017.9 |
| 20260901230019 | 79 | 288 | 1.0 | 3.0 | 0.00 | 0.00 | 0.00 | 60 | 1017.9 |
| 20260901224523 | 79 | 312 | 1.0 | 5.0 | 0.00 | 0.00 | 0.00 | 59 | 1017.9 |
| 20260901223024 | 79 | 269 | 2.0 | 5.0 | 0.00 | 0.00 | 0.00 | 60 | 1017.9 |
| 20260901221521 | 80 | 272 | 0.0 | 3.0 | 0.00 | 0.00 | 0.00 | 60 | 1017.9 |
| 20260901220013 | 80 | 281 | 0.0 | 1.0 | 0.00 | 0.00 | 0.00 | 61 | 1017.8 |
| 20260901214511 | 80 | 201 | 0.0 | 2.0 | 0.00 | 0.00 | 0.00 | 61 | 1017.8 |
| 20260901213009 | 80 | 283 | 0.0 | 2.0 | 0.00 | 0.00 | 0.00 | 62 | 1017.7 |
| 20260901211512 | 81 | 196 | 0.0 | 2.0 | 0.00 | 0.00 | 0.00 | 62 | 1017.8 |
| 20260901210007 | 81 | 288 | 2.0 | 5.0 | 0.00 | 0.00 | 0.00 | 62 | 1017.7 |
| 20260901204506 | 81 | 272 | 0.0 | 2.0 | 0.00 | 0.00 | 0.00 | 66 | 1017.6 |
| 20260901203013 | 81 | 255 | 0.0 | 2.0 | 0.00 | 0.00 | 0.00 | 66 | 1017.6 |
| 20260901201504 | 81 | 281 | 0.0 | 5.0 | 0.00 | 0.00 | 0.00 | 66 | 1017.6 |
| 20260901200013 | 81 | 268 | 1.0 | 5.0 | 0.00 | 0.00 | 0.00 | 67 | 1017.7 |
| 20260901194503 | 82 | 274 | 2.0 | 6.0 | 0.00 | 0.00 | 0.00 | 68 | 1017.7 |
| 20260901193002 | 83 | 281 | 0.0 | 5.0 | 0.00 | 0.00 | 0.00 | 68 | 1017.6 |
| 20260901191501 | 83 | 254 | 1.0 | 4.0 | 0.00 | 0.00 | 0.00 | 70 | 1017.4 |
| 20260901190108 | 83 | 219 | 0.0 | 3.0 | 0.00 | 0.00 | 0.00 | 72 | 1017.3 |
| 20260901190001 | 83 | 201 | 0.0 | 1.0 | 0.00 | 0.00 | 0.00 | 72 | 1017.3 |
| 20260901184559 | 83 | 198 | 0.0 | 3.0 | 0.00 | 0.00 | 0.00 | 72 | 1017.4 |
| 20260901183102 | 83 | 308 | 0.0 | 2.0 | 0.00 | 0.00 | 0.00 | 73 | 1017.3 |
| 20260901181559 | 83 | 357 | 0.0 | 3.0 | 0.00 | 0.00 | 0.00 | 75 | 1017.2 |
| 20260901180058 | 83 | 4 | 1.0 | 4.0 | 0.00 | 0.00 | 0.00 | 75 | 1017.1 |
| 20260901174558 | 83 | 3 | 3.0 | 7.0 | 0.00 | 0.00 | 0.00 | 75 | 1016.8 |
| 20260901173107 | 83 | 41 | 3.0 | 6.0 | 0.00 | 0.00 | 0.00 | 76 | 1016.7 |
| 20260901171554 | 83 | 4 | 4.0 | 8.0 | 0.00 | 0.00 | 0.00 | 75 | 1016.7 |
| 20260901170058 | 83 | 78 | 5.0 | 10.0 | 0.00 | 0.00 | 0.00 | 75 | 1016.8 |
| 20260901164616 | 84 | 13 | 4.0 | 9.0 | 0.00 | 0.00 | 0.00 | 76 | 1016.8 |
| 20260901163052 | 84 | 37 | 6.0 | 10.0 | 0.00 | 0.00 | 0.00 | 77 | 1016.7 |
| 20260901161552 | 84 | 358 | 6.0 | 10.0 | 0.00 | 0.00 | 0.00 | 78 | 1016.9 |
| 20260901160054 | 84 | 68 | 6.0 | 12.0 | 0.00 | 0.00 | 0.00 | 78 | 1017.0 |
| 20260901154551 | 84 | 19 | 6.0 | 11.0 | 0.00 | 0.00 | 0.00 | 77 | 1017.0 |
| 20260901153049 | 84 | 40 | 9.0 | 13.0 | 0.00 | 0.00 | 0.00 | 77 | 1017.0 |
| 20260901151551 | 84 | 51 | 6.0 | 12.0 | 0.00 | 0.00 | 0.00 | 78 | 1017.0 |
| 20260901150047 | 84 | 34 | 7.0 | 11.0 | 0.00 | 0.00 | 0.00 | 77 | 1016.9 |
| 20260901144547 | 84 | 71 | 10.0 | 13.0 | 0.00 | 0.00 | 0.00 | 79 | 1017.0 |
| 20260901143046 | 84 | 69 | 9.0 | 14.0 | 0.00 | 0.00 | 0.00 | 78 | 1016.9 |
| 20260901141556 | 84 | 74 | 8.0 | 13.0 | 0.00 | 0.00 | 0.00 | 79 | 1017.0 |
| 20260901140047 | 84 | 79 | 8.0 | 13.0 | 0.00 | 0.00 | 0.00 | 78 | 1017.0 |
| 20260901134543 | 84 | 85 | 9.0 | 13.0 | 0.00 | 0.00 | 0.00 | 76 | 1017.1 |
| 20260901133045 | 84 | 68 | 8.0 | 13.0 | 0.00 | 0.00 | 0.00 | 78 | 1017.2 |
| 20260901131541 | 84 | 1 | 8.0 | 14.0 | 0.00 | 0.00 | 0.00 | 75 | 1017.3 |
| 20260901130039 | 84 | 57 | 9.0 | 14.0 | 0.00 | 0.00 | 0.00 | 74 | 1017.5 |
| 20260901124550 | 84 | 56 | 9.0 | 15.0 | 0.00 | 0.00 | 0.00 | 77 | 1017.6 |
| 20260901123038 | 84 | 95 | 8.0 | 14.0 | 0.00 | 0.00 | 0.00 | 77 | 1017.7 |
| 20260901121546 | 84 | 80 | 11.0 | 16.0 | 0.00 | 0.00 | 0.00 | 80 | 1017.8 |
| 20260901120037 | 84 | 52 | 10.0 | 15.0 | 0.00 | 0.00 | 0.00 | 79 | 1017.8 |
| 20260901114538 | 84 | 56 | 9.0 | 16.0 | 0.00 | 0.00 | 0.00 | 78 | 1017.8 |
| 20260901113038 | 84 | 55 | 12.0 | 16.0 | 0.00 | 0.00 | 0.00 | 78 | 1017.8 |
| 20260901111535 | 84 | 33 | 9.0 | 16.0 | 0.00 | 0.00 | 0.00 | 78 | 1017.8 |
| 20260901110042 | 84 | 28 | 10.0 | 17.0 | 0.00 | 0.00 | 0.00 | 77 | 1017.7 |
| 20260901104533 | 84 | 87 | 9.0 | 18.0 | 0.00 | 0.00 | 0.00 | 78 | 1017.8 |
| 20260901103032 | 84 | 39 | 9.0 | 18.0 | 0.00 | 0.00 | 0.00 | 80 | 1017.8 |
| 20260901101530 | 84 | 58 | 8.0 | 15.0 | 0.00 | 0.00 | 0.00 | 80 | 1017.9 |
| 20260901100029 | 84 | 79 | 10.0 | 16.0 | 0.00 | 0.00 | 0.00 | 80 | 1017.8 |
| 20260901094528 | 83 | 53 | 12.0 | 17.0 | 0.00 | 0.00 | 0.00 | 81 | 1017.9 |
| 20260901093027 | 83 | 83 | 12.0 | 19.0 | 0.00 | 0.00 | 0.00 | 81 | 1017.9 |
| 20260901091537 | 83 | 89 | 10.0 | 17.0 | 0.00 | 0.00 | 0.00 | 81 | 1017.8 |